Sioux Falls, SD

1:26 PM CDT on April 27, 2017 (GMT -0500)
Foss

Weather History for KFSD - July, 2015

Change the Weather History Date:

Monday, July 13, 2015

  Actual Average Record
Temperature  
Mean Temperature 77 °F 73 °F  
Max Temperature 89 °F 84 °F 106 °F (1995)
Min Temperature 65 °F 62 °F 44 °F (1950)
Degree Days  
Heating Degree Days 0 0  
Month to date heating degree days 6 0  
Since 1 June heating degree days 15 51  
Since 1 July heating degree days 6 0  
Cooling Degree Days 12 9  
Month to date cooling degree days 76 104  
Year to date cooling degree days 237 275  
Since 1 June cooling degree days 215 239  
Growing Degree Days 26 (Base 50)    
Moisture  
Dew Point 64 °F    
Average Humidity 67    
Maximum Humidity 90    
Minimum Humidity 44    
Precipitation  
Precipitation T in 0.10 in 1.11 in (1921)
Month to date precipitation 1.98 1.34  
Year to date precipitation 12.82 14.59  
Snow  
Snow 0.00 in 0.00 in 0.00 in ()
Month to date snowfall 0.0 0.0  
Since 1 June snowfall 0.0 0.0  
Since 1 July snowfall 0.0 0.0  
Snow Depth 0.00 in    
Sea Level Pressure  
Sea Level Pressure 29.72 in    
Wind  
Wind Speed 8 mph (WNW)    
Max Wind Speed 17 mph    
Max Gust Speed 25 mph    
Visibility 10 miles    
Events Rain , Thunderstorm    
T = Trace of Precipitation, MM = Missing Value Source: NWS Daily Summary

Daily Weather History Graph

Daily Weather History Graph

Search for Another Location

Airport or City:

Trip Planner

Search our weather history database for the weather conditions in past years. The results will help you decide how hot, cold, wet, or windy it might be!

Date:

Astronomy

Jul. 13, 2015 Rise Set
Actual Time 5:57 AM CDT 9:07 PM CDT
Civil Twilight 5:22 AM CDT 9:42 PM CDT
Nautical Twilight 4:37 AM CDT 10:26 PM CDT
Astronomical Twilight 3:43 AM CDT 11:20 PM CDT
Moon 4:02 AM CDT (7/13) 6:59 PM CDT (7/13)
Length of Visible Light 16h 19m
Length of Day
15h 09m
Waning Crescent, 6% of the Moon is Illuminated
Jul 13
Waning Crescent
Jul 15
New
Jul 23
First Quarter
Jul 31
Full
Aug 6
Last Quarter

Hourly Weather History & Observations

Time (CDT) Temp. Heat Index Dew Point Humidity Pressure Visibility Wind Dir Wind Speed Gust Speed Precip Events Conditions
12:56 AM 70.0 °F - 66.0 °F 87% 29.71 in 10.0 mi Calm Calm - N/A   Clear
1:56 AM 69.1 °F - 64.9 °F 87% 29.69 in 10.0 mi Calm Calm - N/A   Clear
2:56 AM 70.0 °F - 66.0 °F 87% 29.69 in 10.0 mi West 3.5 mph - N/A   Clear
3:56 AM 73.9 °F - 64.0 °F 71% 29.73 in 10.0 mi North 16.1 mph - N/A   Clear
4:31 AM 73.0 °F - 60.1 °F 64% 29.71 in 10.0 mi Variable 4.6 mph - 0.00 in Rain , Thunderstorm Light Thunderstorms and Rain
4:47 AM 70.0 °F - 60.1 °F 71% 29.71 in 10.0 mi Calm Calm - N/A   Mostly Cloudy
4:56 AM 69.1 °F - 60.1 °F 73% 29.68 in 10.0 mi East 35.7 mph - N/A   Mostly Cloudy
5:56 AM 64.9 °F - 60.1 °F 84% 29.70 in 10.0 mi SW 4.6 mph - N/A   Partly Cloudy
6:56 AM 69.1 °F - 62.1 °F 78% 29.73 in 10.0 mi West 5.8 mph - N/A   Partly Cloudy
7:56 AM 72.0 °F - 60.1 °F 66% 29.73 in 10.0 mi West 9.2 mph - N/A   Partly Cloudy
8:56 AM 75.0 °F - 62.1 °F 64% 29.75 in 10.0 mi West 8.1 mph - N/A   Partly Cloudy
9:56 AM 79.0 °F - 64.0 °F 60% 29.75 in 10.0 mi West 10.4 mph - N/A   Partly Cloudy
10:56 AM 82.9 °F 84.6 °F 64.9 °F 54% 29.76 in 10.0 mi WNW 10.4 mph - N/A   Scattered Clouds
11:56 AM 84.9 °F 86.6 °F 64.9 °F 51% 29.76 in 10.0 mi NW 10.4 mph - N/A   Partly Cloudy
12:56 PM 86.0 °F 88.2 °F 66.0 °F 51% 29.76 in 10.0 mi NNW 11.5 mph - N/A   Scattered Clouds
1:56 PM 87.1 °F 88.3 °F 64.0 °F 46% 29.75 in 10.0 mi NW 12.7 mph - N/A   Partly Cloudy
2:56 PM 88.0 °F 89.3 °F 64.0 °F 45% 29.74 in 10.0 mi WNW 12.7 mph - N/A   Partly Cloudy
3:56 PM 88.0 °F 89.6 °F 64.9 °F 46% 29.72 in 10.0 mi WNW 16.1 mph 20.7 mph N/A   Partly Cloudy
4:56 PM 89.1 °F 90.3 °F 64.0 °F 43% 29.71 in 10.0 mi WNW 11.5 mph 18.4 mph N/A   Partly Cloudy
5:56 PM 89.1 °F 89.3 °F 62.1 °F 40% 29.70 in 10.0 mi WNW 10.4 mph - N/A   Partly Cloudy
6:56 PM 88.0 °F 89.6 °F 64.9 °F 46% 29.69 in 10.0 mi West 5.8 mph - N/A   Partly Cloudy
7:56 PM 86.0 °F 88.2 °F 66.0 °F 51% 29.68 in 10.0 mi West 5.8 mph - N/A   Partly Cloudy
8:56 PM 82.0 °F 84.5 °F 66.9 °F 60% 29.68 in 10.0 mi West 3.5 mph - N/A   Partly Cloudy
9:56 PM 77.0 °F - 66.9 °F 71% 29.70 in 10.0 mi West 4.6 mph - N/A   Clear
10:56 PM 73.9 °F - 66.9 °F 79% 29.71 in 10.0 mi WNW 4.6 mph - N/A   Clear
11:56 PM 73.9 °F - 66.0 °F 76% 29.72 in 10.0 mi West 4.6 mph - N/A   Clear